This demonstration page uses our WeatherBlox Daily Observations layout. Learn more.

Left ArrowRight Arrow

31.31129, -92.44514

Hourly Observations for December 24, 2020

Temp ( °F °C ) Dew Point ( °F °C ) Humidity (%) Winds ( mph kmh ) Pressure ( in mb ) Visibility ( mi km ) Precip ( " mm )
12:53 am 00:53 Cloudy 51 10.6 37 2.8 59 59 NNW 13 20 29.97 1015 10 16 0.00 0.00
1:53 am 01:53 Cloudy 49 9.4 34 1.1 56 56 NNW 14 22 29.99 1016 10 16 0.00 0.00
2:53 am 02:53 Cloudy 47 8.3 31 -0.6 54 54 NNW 15 24 30.01 1016 10 16 0.00 0.00
3:53 am 03:53 Mostly Cloudy 44 6.7 30 -1.1 58 58 NNW 17 28 30.03 1017 10 16 0.00 0.00
4:53 am 04:53 Partly Cloudy 41 5 26 -3.3 55 55 NNW 21 33 30.07 1018 10 16 0.00 0.00
5:53 am 05:53 Cloudy 39 3.9 25 -3.9 57 57 NNW 22 35 30.12 1020 10 16 0.00 0.00
6:53 am 06:53 Mostly Cloudy 37 2.8 23 -5 57 57 NNW 15 24 30.17 1022 10 16 0.00 0.00
7:53 am 07:53 Cloudy 37 2.8 24 -4.4 59 59 NW 17 28 30.20 1023 10 16 0.00 0.00
8:53 am 08:53 Sunny 38 3.3 24 -4.4 57 57 NW 21 33 30.24 1024 10 16 0.00 0.00
9:53 am 09:53 Sunny 39 3.9 25 -3.9 57 57 WNW 21 33 30.27 1025 10 16 0.00 0.00
10:53 am 10:53 Sunny 40 4.4 22 -5.6 49 49 NW 16 26 30.26 1025 10 16 0.00 0.00
11:53 am 11:53 Sunny 42 5.6 20 -6.7 41 41 NW 23 37 30.23 1024 10 16 0.00 0.00
12:53 pm 12:53 Sunny 42 5.6 18 -7.8 38 38 NW 28 44 30.21 1023 10 16 0.00 0.00
1:53 pm 13:53 Sunny 43 6.1 20 -6.7 40 40 NW 26 43 30.19 1022 10 16 0.00 0.00
2:53 pm 14:53 Sunny 44 6.7 19 -7.2 37 37 NW 24 39 30.19 1022 10 16 0.00 0.00
3:53 pm 15:53 Sunny 44 6.7 19 -7.2 37 37 NW 22 35 30.19 1022 10 16 0.00 0.00
4:53 pm 16:53 Sunny 42 5.6 20 -6.7 41 41 NW 14 22 30.19 1022 10 16 0.00 0.00
5:53 pm 17:53 Clear 37 2.8 27 -2.8 67 67 W 6 9 30.21 1023 10 16 0.00 0.00
6:53 pm 18:53 Clear 36 2.2 29 -1.7 76 76 SW 6 9 30.22 1023 10 16 0.00 0.00
7:53 pm 19:53 Clear 37 2.8 25 -3.9 62 62 Calm 30.22 1023 10 16 0.00 0.00
8:53 pm 20:53 Clear 35 1.7 25 -3.9 67 67 Calm 30.22 1023 10 16 0.00 0.00
9:53 pm 21:53 Clear 32 0 24 -4.4 73 73 SSE 6 9 30.19 1023 10 16 0.00 0.00
10:53 pm 22:53 Clear 33 0.6 24 -4.4 70 70 Calm 30.19 1022 10 16 0.00 0.00
11:53 pm 23:53 Clear 36 2.2 25 -3.9 64 64 W 9 15 30.19 1022 10 16 0.00 0.00

Powered by AerisWeather